Time,TemperatureF,DewpointF,PressureIn,WindDirection,WindDirectionDegrees,WindSpeedMPH,WindSpeedGustMPH,Humidity,HourlyPrecipIn,Conditions,Clouds,dailyrainin,SoftwareType,DateUTC
2013-04-29 00:05:00,64.6,54.2,29.69,South,170,5.0,6.0,69,0.00,,,0.00,Wunderground v.1.15,2013-04-29 05:05:00,
2013-04-29 00:15:00,64.3,54.3,29.69,SSE,149,6.0,8.0,70,0.00,,,0.00,Wunderground v.1.15,2013-04-29 05:15:00,
2013-04-29 00:20:00,64.1,54.1,29.69,SSE,148,6.0,6.0,70,0.00,,,0.00,Wunderground v.1.15,2013-04-29 05:20:00,
2013-04-29 00:25:00,64.0,54.4,29.70,SSE,150,5.0,6.0,71,0.00,,,0.00,Wunderground v.1.15,2013-04-29 05:25:00,
2013-04-29 00:35:00,63.7,54.1,29.69,South,173,4.0,5.0,71,0.00,,,0.00,Wunderground v.1.15,2013-04-29 05:35:00,
2013-04-29 00:40:00,63.6,54.0,29.70,South,173,4.0,4.0,71,0.00,,,0.00,Wunderground v.1.15,2013-04-29 05:40:00,
2013-04-29 00:50:00,63.2,53.6,29.69,SSE,158,4.0,5.0,71,0.00,,,0.00,Wunderground v.1.15,2013-04-29 05:50:00,
2013-04-29 00:55:00,63.1,53.9,29.69,SSE,150,4.0,6.0,72,0.00,,,0.00,Wunderground v.1.15,2013-04-29 05:55:00,
2013-04-29 01:00:00,62.9,53.7,29.70,SSE,158,5.0,5.0,72,0.00,,,0.00,Wunderground v.1.15,2013-04-29 06:00:00,
2013-04-29 01:05:00,62.7,53.9,29.70,South,174,5.0,5.0,73,0.00,,,0.00,Wunderground v.1.15,2013-04-29 06:05:00,
2013-04-29 01:15:00,62.4,54.0,29.70,South,188,3.0,5.0,74,0.00,,,0.00,Wunderground v.1.15,2013-04-29 06:15:00,
2013-04-29 01:20:00,62.2,53.8,29.70,South,174,4.0,5.0,74,0.00,,,0.00,Wunderground v.1.15,2013-04-29 06:20:00,
2013-04-29 01:25:00,62.1,54.1,29.70,SSE,156,5.0,5.0,75,0.00,,,0.00,Wunderground v.1.15,2013-04-29 06:25:00,
2013-04-29 01:30:00,62.0,54.0,29.70,South,171,4.0,4.0,75,0.00,,,0.00,Wunderground v.1.15,2013-04-29 06:30:00,
2013-04-29 01:40:00,61.8,54.2,29.70,South,182,3.0,3.0,76,0.00,,,0.00,Wunderground v.1.15,2013-04-29 06:40:00,
2013-04-29 01:45:00,61.7,54.1,29.70,South,190,3.0,3.0,76,0.00,,,0.00,Wunderground v.1.15,2013-04-29 06:45:00,
2013-04-29 01:50:00,61.6,54.0,29.70,SSW,194,4.0,4.0,76,0.00,,,0.00,Wunderground v.1.15,2013-04-29 06:50:00,
2013-04-29 02:00:00,61.4,54.1,29.70,SSW,208,4.0,4.0,77,0.00,,,0.00,Wunderground v.1.15,2013-04-29 07:00:00,
2013-04-29 02:05:00,61.3,54.0,29.70,SSW,211,4.0,5.0,77,0.00,,,0.00,Wunderground v.1.15,2013-04-29 07:05:00,
2013-04-29 02:15:00,61.1,54.2,29.70,SSW,198,4.0,4.0,78,0.00,,,0.00,Wunderground v.1.15,2013-04-29 07:15:00,
2013-04-29 02:25:00,60.9,54.0,29.68,South,180,3.0,6.0,78,0.00,,,0.00,Wunderground v.1.15,2013-04-29 07:25:00,
2013-04-29 02:30:00,60.8,53.9,29.68,South,186,4.0,4.0,78,0.00,,,0.00,Wunderground v.1.15,2013-04-29 07:30:00,
2013-04-29 02:40:00,60.6,54.0,29.68,South,181,5.0,5.0,79,0.00,,,0.00,Wunderground v.1.15,2013-04-29 07:40:00,
2013-04-29 02:45:00,60.5,54.0,29.68,South,176,5.0,6.0,79,0.00,,,0.00,Wunderground v.1.15,2013-04-29 07:45:00,
2013-04-29 02:55:00,60.3,54.1,29.67,SSE,163,5.0,5.0,80,0.00,,,0.00,Wunderground v.1.15,2013-04-29 07:55:00,
2013-04-29 03:00:00,60.2,54.0,29.67,SSE,148,5.0,5.0,80,0.00,,,0.00,Wunderground v.1.15,2013-04-29 08:00:00,
2013-04-29 03:05:00,60.0,53.8,29.67,SSE,161,6.0,6.0,80,0.00,,,0.00,Wunderground v.1.15,2013-04-29 08:05:00,
2013-04-29 03:15:00,59.8,54.0,29.67,South,175,5.0,6.0,81,0.00,,,0.00,Wunderground v.1.15,2013-04-29 08:15:00,
2013-04-29 03:25:00,59.6,53.8,29.67,SSE,165,4.0,5.0,81,0.00,,,0.00,Wunderground v.1.15,2013-04-29 08:25:00,
2013-04-29 03:30:00,59.5,53.7,29.67,SSE,163,4.0,4.0,81,0.00,,,0.00,Wunderground v.1.15,2013-04-29 08:30:00,
2013-04-29 03:35:00,59.4,53.9,29.67,South,173,4.0,4.0,82,0.00,,,0.00,Wunderground v.1.15,2013-04-29 08:35:00,
2013-04-29 03:45:00,59.0,53.5,29.67,SSW,200,3.0,5.0,82,0.00,,,0.00,Wunderground v.1.15,2013-04-29 08:45:00,
2013-04-29 03:50:00,59.0,53.5,29.67,SSW,206,4.0,4.0,82,0.00,,,0.00,Wunderground v.1.15,2013-04-29 08:50:00,
2013-04-29 04:00:00,59.0,53.5,29.67,SSW,207,2.0,2.0,82,0.00,,,0.00,Wunderground v.1.15,2013-04-29 09:00:00,
2013-04-29 04:05:00,59.0,53.5,29.68,SSW,207,2.0,4.0,82,0.00,,,0.00,Wunderground v.1.15,2013-04-29 09:05:00,
2013-04-29 04:15:00,58.6,53.5,29.68,SSW,209,3.0,3.0,83,0.00,,,0.00,Wunderground v.1.15,2013-04-29 09:15:00,
2013-04-29 04:20:00,58.5,53.4,29.68,SSW,210,2.0,2.0,83,0.00,,,0.00,Wunderground v.1.15,2013-04-29 09:20:00,
2013-04-29 04:30:00,58.3,53.2,29.67,SSW,210,2.0,2.0,83,0.00,,,0.00,Wunderground v.1.15,2013-04-29 09:30:00,
2013-04-29 04:35:00,58.2,53.1,29.67,SSW,210,1.0,2.0,83,0.00,,,0.00,Wunderground v.1.15,2013-04-29 09:35:00,
2013-04-29 04:40:00,58.1,53.0,29.68,SSW,213,2.0,2.0,83,0.00,,,0.00,Wunderground v.1.15,2013-04-29 09:40:00,
2013-04-29 04:50:00,57.9,53.1,29.66,WSW,242,2.0,2.0,84,0.00,,,0.00,Wunderground v.1.15,2013-04-29 09:50:00,
2013-04-29 04:55:00,57.9,53.1,29.66,WSW,243,2.0,2.0,84,0.00,,,0.00,Wunderground v.1.15,2013-04-29 09:55:00,
2013-04-29 05:05:00,57.8,53.3,29.66,SE,144,3.0,4.0,85,0.00,,,0.00,Wunderground v.1.15,2013-04-29 10:05:00,
2013-04-29 05:15:00,57.7,53.2,29.68,South,183,2.0,3.0,85,0.00,,,0.00,Wunderground v.1.15,2013-04-29 10:15:00,
2013-04-29 05:20:00,57.5,53.0,29.69,SSW,192,2.0,3.0,85,0.00,,,0.00,Wunderground v.1.15,2013-04-29 10:20:00,
2013-04-29 05:25:00,57.5,53.0,29.68,WSW,252,2.0,3.0,85,0.00,,,0.00,Wunderground v.1.15,2013-04-29 10:25:00,
2013-04-29 05:35:00,57.2,52.7,29.69,WSW,253,1.0,2.0,85,0.00,,,0.00,Wunderground v.1.15,2013-04-29 10:35:00,
2013-04-29 05:40:00,57.1,52.6,29.70,WSW,253,1.0,4.0,85,0.00,,,0.00,Wunderground v.1.15,2013-04-29 10:40:00,
2013-04-29 05:45:00,56.9,52.4,29.69,WSW,253,1.0,4.0,85,0.00,,,0.00,Wunderground v.1.15,2013-04-29 10:45:00,
2013-04-29 05:55:00,56.6,52.5,29.69,WSW,253,0.0,2.0,86,0.00,,,0.00,Wunderground v.1.15,2013-04-29 10:55:00,
2013-04-29 06:05:00,56.4,52.3,29.67,WSW,253,0.0,1.0,86,0.00,,,0.00,Wunderground v.1.15,2013-04-29 11:05:00,
2013-04-29 06:15:00,56.3,52.2,29.67,WSW,253,0.0,0.0,86,0.00,,,0.00,Wunderground v.1.15,2013-04-29 11:15:00,
2013-04-29 06:20:00,56.2,52.4,29.67,WSW,248,1.0,2.0,87,0.00,,,0.00,Wunderground v.1.15,2013-04-29 11:20:00,
2013-04-29 06:25:00,56.1,52.3,29.66,WSW,250,2.0,2.0,87,0.00,,,0.00,Wunderground v.1.15,2013-04-29 11:25:00,
2013-04-29 06:30:00,56.1,52.3,29.67,WSW,250,1.0,1.0,87,0.00,,,0.00,Wunderground v.1.15,2013-04-29 11:30:00,
2013-04-29 06:40:00,56.0,52.2,29.67,WSW,250,1.0,1.0,87,0.00,,,0.00,Wunderground v.1.15,2013-04-29 11:40:00,
2013-04-29 06:50:00,56.0,52.5,29.68,WSW,250,0.0,0.0,88,0.00,,,0.00,Wunderground v.1.15,2013-04-29 11:50:00,
2013-04-29 06:55:00,56.0,52.5,29.67,NNW,329,0.0,3.0,88,0.00,,,0.00,Wunderground v.1.15,2013-04-29 11:55:00,
2013-04-29 07:00:00,56.0,52.5,29.67,NNE,12,3.0,3.0,88,0.00,,,0.00,Wunderground v.1.15,2013-04-29 12:00:00,
2013-04-29 07:05:00,56.0,52.5,29.68,NW,323,4.0,4.0,88,0.00,,,0.00,Wunderground v.1.15,2013-04-29 12:05:00,
2013-04-29 07:15:00,56.0,52.5,29.67,North,5,3.0,8.0,88,0.00,,,0.00,Wunderground v.1.15,2013-04-29 12:15:00,
2013-04-29 07:25:00,55.8,51.7,29.67,NNW,327,7.0,7.0,86,0.00,,,0.00,Wunderground v.1.15,2013-04-29 12:25:00,
2013-04-29 07:30:00,55.9,51.5,29.67,NNW,333,6.0,6.0,85,0.00,,,0.00,Wunderground v.1.15,2013-04-29 12:30:00,
2013-04-29 07:40:00,56.2,50.1,29.68,NW,310,9.0,9.0,80,0.00,,,0.00,Wunderground v.1.15,2013-04-29 12:40:00,
2013-04-29 07:45:00,56.4,50.0,29.70,NW,319,8.0,9.0,79,0.00,,,0.00,Wunderground v.1.15,2013-04-29 12:45:00,
2013-04-29 07:55:00,56.6,49.8,29.69,North,5,4.0,6.0,78,0.00,,,0.00,Wunderground v.1.15,2013-04-29 12:55:00,
2013-04-29 08:00:00,56.6,49.8,29.68,NNE,22,5.0,9.0,78,0.00,,,0.00,Wunderground v.1.15,2013-04-29 13:00:00,
2013-04-29 08:05:00,56.6,49.8,29.70,NW,309,6.0,9.0,78,0.00,,,0.00,Wunderground v.1.15,2013-04-29 13:05:00,
2013-04-29 08:15:00,56.8,50.0,29.70,North,11,4.0,5.0,78,0.00,,,0.00,Wunderground v.1.15,2013-04-29 13:15:00,
2013-04-29 08:20:00,57.0,50.2,29.69,North,5,6.0,15.0,78,0.00,,,0.00,Wunderground v.1.15,2013-04-29 13:20:00,
2013-04-29 08:30:00,57.4,50.6,29.69,NNE,30,9.0,9.0,78,0.00,,,0.00,Wunderground v.1.15,2013-04-29 13:30:00,
2013-04-29 08:35:00,57.7,50.9,29.70,NW,317,4.0,9.0,78,0.00,,,0.00,Wunderground v.1.15,2013-04-29 13:35:00,
2013-04-29 08:45:00,58.6,51.8,29.70,North,360,2.0,2.0,78,0.00,,,0.00,Wunderground v.1.15,2013-04-29 13:45:00,
2013-04-29 08:50:00,59.0,51.8,29.69,NE,35,3.0,3.0,77,0.00,,,0.00,Wunderground v.1.15,2013-04-29 13:50:00,
2013-04-29 09:00:00,59.0,51.8,29.69,ENE,69,5.0,5.0,77,0.00,,,0.00,Wunderground v.1.15,2013-04-29 14:00:00,
2013-04-29 09:05:00,59.4,52.5,29.70,NE,50,5.0,5.0,78,0.00,,,0.00,Wunderground v.1.15,2013-04-29 14:05:00,
2013-04-29 09:15:00,60.5,53.3,29.71,North,10,2.0,4.0,77,0.00,,,0.00,Wunderground v.1.15,2013-04-29 14:15:00,
2013-04-29 09:25:00,60.5,52.9,29.71,ENE,69,2.0,2.0,76,0.00,,,0.00,Wunderground v.1.15,2013-04-29 14:25:00,
2013-04-29 09:30:00,60.7,53.1,29.71,ENE,67,1.0,1.0,76,0.00,,,0.00,Wunderground v.1.15,2013-04-29 14:30:00,
2013-04-29 09:35:00,60.8,52.8,29.72,ENE,63,1.0,1.0,75,0.00,,,0.00,Wunderground v.1.15,2013-04-29 14:35:00,
2013-04-29 09:45:00,60.9,52.9,29.69,NNE,26,1.0,3.0,75,0.00,,,0.00,Wunderground v.1.15,2013-04-29 14:45:00,
2013-04-29 09:55:00,61.3,53.3,29.70,North,355,2.0,4.0,75,0.00,,,0.00,Wunderground v.1.15,2013-04-29 14:55:00,
2013-04-29 10:00:00,61.5,53.5,29.69,NNE,19,3.0,5.0,75,0.00,,,0.00,Wunderground v.1.15,2013-04-29 15:00:00,
2013-04-29 10:05:00,63.1,55.0,29.69,North,360,4.0,5.0,75,0.00,,,0.00,Wunderground v.1.15,2013-04-29 15:05:00,
2013-04-29 10:15:00,64.5,54.5,29.69,NW,321,5.0,6.0,70,0.00,,,0.00,Wunderground v.1.15,2013-04-29 15:15:00,
2013-04-29 10:25:00,66.1,56.4,29.67,NNW,344,5.0,7.0,71,0.00,,,0.00,Wunderground v.1.15,2013-04-29 15:25:00,
2013-04-29 10:30:00,66.5,55.2,29.67,NE,49,5.0,5.0,67,0.00,,,0.00,Wunderground v.1.15,2013-04-29 15:30:00,
2013-04-29 10:40:00,66.1,55.2,29.67,North,11,4.0,4.0,68,0.00,,,0.00,Wunderground v.1.15,2013-04-29 15:40:00,
2013-04-29 10:45:00,66.5,55.6,29.67,ENE,57,3.0,4.0,68,0.00,,,0.00,Wunderground v.1.15,2013-04-29 15:45:00,
2013-04-29 10:55:00,66.9,55.2,29.67,NNE,13,3.0,3.0,66,0.00,,,0.00,Wunderground v.1.15,2013-04-29 15:55:00,
2013-04-29 11:00:00,66.7,55.4,29.67,North,5,3.0,3.0,67,0.00,,,0.00,Wunderground v.1.15,2013-04-29 16:00:00,
2013-04-29 11:05:00,67.6,56.2,29.67,ENE,65,3.0,3.0,67,0.00,,,0.00,Wunderground v.1.15,2013-04-29 16:05:00,
2013-04-29 11:15:00,69.8,56.6,29.67,North,5,3.0,6.0,63,0.00,,,0.00,Wunderground v.1.15,2013-04-29 16:15:00,
2013-04-29 11:20:00,69.3,56.6,29.66,NNE,27,4.0,4.0,64,0.00,,,0.00,Wunderground v.1.15,2013-04-29 16:20:00,
2013-04-29 11:25:00,69.4,56.7,29.66,NNW,327,4.0,4.0,64,0.00,,,0.00,Wunderground v.1.15,2013-04-29 16:25:00,
2013-04-29 11:30:00,70.3,57.1,29.65,North,5,4.0,5.0,63,0.00,,,0.00,Wunderground v.1.15,2013-04-29 16:30:00,
2013-04-29 11:40:00,70.6,56.5,29.65,NE,35,4.0,4.0,61,0.00,,,0.00,Wunderground v.1.15,2013-04-29 16:40:00,
2013-04-29 11:50:00,70.8,58.4,29.65,NE,41,4.0,4.0,65,0.00,,,0.00,Wunderground v.1.15,2013-04-29 16:50:00,
2013-04-29 11:55:00,71.7,58.0,29.64,East,84,3.0,5.0,62,0.00,,,0.00,Wunderground v.1.15,2013-04-29 16:55:00,
2013-04-29 12:05:00,72.8,58.6,29.65,ENE,65,3.0,5.0,61,0.00,,,0.00,Wunderground v.1.15,2013-04-29 17:05:00,
2013-04-29 12:15:00,74.1,59.3,29.64,NNE,28,2.0,7.0,60,0.00,,,0.00,Wunderground v.1.15,2013-04-29 17:15:00,
2013-04-29 12:20:00,74.0,59.7,29.64,NE,43,3.0,3.0,61,0.00,,,0.00,Wunderground v.1.15,2013-04-29 17:20:00,
2013-04-29 12:25:00,72.2,57.5,29.64,NE,43,3.0,3.0,60,0.00,,,0.00,Wunderground v.1.15,2013-04-29 17:25:00,
2013-04-29 12:35:00,73.1,59.3,29.63,NE,48,0.0,1.0,62,0.00,,,0.00,Wunderground v.1.15,2013-04-29 17:35:00,
2013-04-29 12:40:00,74.5,59.2,29.63,ENE,57,1.0,2.0,59,0.00,,,0.00,Wunderground v.1.15,2013-04-29 17:40:00,
2013-04-29 12:50:00,74.5,58.8,29.64,WNW,300,2.0,4.0,58,0.00,,,0.00,Wunderground v.1.15,2013-04-29 17:50:00,
2013-04-29 12:55:00,75.4,60.1,29.63,WNW,296,2.0,4.0,59,0.00,,,0.00,Wunderground v.1.15,2013-04-29 17:55:00,
2013-04-29 13:05:00,74.2,59.4,29.63,NW,305,1.0,1.0,60,0.00,,,0.00,Wunderground v.1.15,2013-04-29 18:05:00,
2013-04-29 13:15:00,76.6,60.2,29.63,South,178,1.0,2.0,57,0.00,,,0.00,Wunderground v.1.15,2013-04-29 18:15:00,
2013-04-29 13:20:00,78.2,60.2,29.62,South,178,1.0,1.0,54,0.00,,,0.00,Wunderground v.1.15,2013-04-29 18:20:00,
2013-04-29 13:30:00,77.3,58.3,29.61,South,173,1.0,1.0,52,0.00,,,0.00,Wunderground v.1.15,2013-04-29 18:30:00,
2013-04-29 13:35:00,77.0,59.6,29.61,SSE,166,1.0,4.0,55,0.00,,,0.00,Wunderground v.1.15,2013-04-29 18:35:00,
2013-04-29 13:45:00,77.7,60.2,29.60,SSW,192,2.0,2.0,55,0.00,,,0.00,Wunderground v.1.15,2013-04-29 18:45:00,
2013-04-29 13:50:00,78.1,58.5,29.60,SSW,195,2.0,2.0,51,0.00,,,0.00,Wunderground v.1.15,2013-04-29 18:50:00,
2013-04-29 14:00:00,78.1,58.5,29.60,South,171,1.0,3.0,51,0.00,,,0.00,Wunderground v.1.15,2013-04-29 19:00:00,
2013-04-29 14:05:00,79.4,59.1,29.60,SW,218,2.0,3.0,50,0.00,,,0.00,Wunderground v.1.15,2013-04-29 19:05:00,
2013-04-29 14:15:00,79.1,58.3,29.59,SSW,209,2.0,3.0,49,0.00,,,0.00,Wunderground v.1.15,2013-04-29 19:15:00,
2013-04-29 14:20:00,79.1,58.3,29.59,South,171,3.0,3.0,49,0.00,,,0.00,Wunderground v.1.15,2013-04-29 19:20:00,
2013-04-29 14:30:00,80.6,62.4,29.59,SE,130,2.0,2.0,54,0.00,,,0.00,Wunderground v.1.15,2013-04-29 19:30:00,
2013-04-29 14:35:00,81.8,59.6,29.59,SSE,153,3.0,5.0,47,0.00,,,0.00,Wunderground v.1.15,2013-04-29 19:35:00,
2013-04-29 14:45:00,82.0,61.5,29.58,SSE,148,3.0,3.0,50,0.00,,,0.00,Wunderground v.1.15,2013-04-29 19:45:00,
2013-04-29 14:50:00,82.5,59.6,29.58,SE,136,3.0,4.0,46,0.00,,,0.00,Wunderground v.1.15,2013-04-29 19:50:00,
2013-04-29 14:55:00,81.9,57.8,29.57,SE,134,3.0,4.0,44,0.00,,,0.00,Wunderground v.1.15,2013-04-29 19:55:00,
2013-04-29 15:05:00,83.0,58.8,29.57,SSE,163,4.0,4.0,44,0.00,,,0.00,Wunderground v.1.15,2013-04-29 20:05:00,
2013-04-29 15:15:00,82.9,58.1,29.56,SE,144,2.0,5.0,43,0.00,,,0.00,Wunderground v.1.15,2013-04-29 20:15:00,
2013-04-29 15:20:00,84.1,61.7,29.57,South,181,3.0,4.0,47,0.00,,,0.00,Wunderground v.1.15,2013-04-29 20:20:00,
2013-04-29 15:30:00,84.3,57.3,29.56,SE,138,5.0,6.0,40,0.00,,,0.00,Wunderground v.1.15,2013-04-29 20:30:00,
2013-04-29 15:35:00,84.8,57.8,29.55,SE,145,5.0,6.0,40,0.00,,,0.00,Wunderground v.1.15,2013-04-29 20:35:00,
2013-04-29 15:45:00,85.6,57.8,29.55,SSW,204,4.0,5.0,39,0.00,,,0.00,Wunderground v.1.15,2013-04-29 20:45:00,
2013-04-29 15:50:00,86.2,58.3,29.54,SSW,194,4.0,8.0,39,0.00,,,0.00,Wunderground v.1.15,2013-04-29 20:50:00,
2013-04-29 16:00:00,86.4,57.8,29.54,South,191,8.0,8.0,38,0.00,,,0.00,Wunderground v.1.15,2013-04-29 21:00:00,
2013-04-29 16:05:00,86.1,57.5,29.54,SE,141,7.0,8.0,38,0.00,,,0.00,Wunderground v.1.15,2013-04-29 21:05:00,
2013-04-29 16:15:00,86.2,56.9,29.53,SSW,213,5.0,10.0,37,0.00,,,0.00,Wunderground v.1.15,2013-04-29 21:15:00,
2013-04-29 16:20:00,87.0,57.6,29.53,SSE,150,5.0,5.0,37,0.00,,,0.00,Wunderground v.1.15,2013-04-29 21:20:00,
2013-04-29 16:30:00,87.0,57.6,29.53,SW,217,5.0,5.0,37,0.00,,,0.00,Wunderground v.1.15,2013-04-29 21:30:00,
2013-04-29 16:40:00,85.5,53.9,29.53,SSW,202,6.0,6.0,34,0.00,,,0.00,Wunderground v.1.15,2013-04-29 21:40:00,
2013-04-29 16:45:00,85.1,54.4,29.53,SSW,212,7.0,7.0,35,0.00,,,0.00,Wunderground v.1.15,2013-04-29 21:45:00,
2013-04-29 16:50:00,84.9,55.7,29.53,SE,144,7.0,8.0,37,0.00,,,0.00,Wunderground v.1.15,2013-04-29 21:50:00,
2013-04-29 17:00:00,85.0,55.1,29.53,SSW,201,5.0,5.0,36,0.00,,,0.00,Wunderground v.1.15,2013-04-29 22:00:00,
2013-04-29 17:05:00,85.4,56.2,29.52,SSW,204,5.0,7.0,37,0.00,,,0.00,Wunderground v.1.15,2013-04-29 22:05:00,
2013-04-29 17:15:00,85.6,56.3,29.52,SSE,165,6.0,6.0,37,0.00,,,0.00,Wunderground v.1.15,2013-04-29 22:15:00,
2013-04-29 17:25:00,85.3,52.9,29.52,South,174,7.0,7.0,33,0.00,,,0.00,Wunderground v.1.15,2013-04-29 22:25:00,
2013-04-29 17:30:00,85.1,53.6,29.51,SE,144,6.0,7.0,34,0.00,,,0.00,Wunderground v.1.15,2013-04-29 22:30:00,
2013-04-29 17:35:00,85.1,54.4,29.51,SE,134,5.0,7.0,35,0.00,,,0.00,Wunderground v.1.15,2013-04-29 22:35:00,
2013-04-29 17:45:00,85.1,53.6,29.50,SSE,164,4.0,5.0,34,0.00,,,0.00,Wunderground v.1.15,2013-04-29 22:45:00,
2013-04-29 17:50:00,85.1,52.8,29.50,SSE,156,5.0,5.0,33,0.00,,,0.00,Wunderground v.1.15,2013-04-29 22:50:00,
2013-04-29 18:00:00,84.3,52.9,29.50,South,171,4.0,8.0,34,0.00,,,0.00,Wunderground v.1.15,2013-04-29 23:00:00,
2013-04-29 18:05:00,84.3,54.4,29.50,SSE,159,5.0,8.0,36,0.00,,,0.00,Wunderground v.1.15,2013-04-29 23:05:00,
2013-04-29 18:15:00,84.3,54.4,29.50,South,173,3.0,5.0,36,0.00,,,0.00,Wunderground v.1.15,2013-04-29 23:15:00,
2013-04-29 18:20:00,83.9,55.6,29.50,South,176,4.0,4.0,38,0.00,,,0.00,Wunderground v.1.15,2013-04-29 23:20:00,
2013-04-29 18:30:00,83.6,56.7,29.49,South,185,5.0,5.0,40,0.00,,,0.00,Wunderground v.1.15,2013-04-29 23:30:00,
2013-04-29 18:35:00,83.8,56.2,29.49,South,181,5.0,8.0,39,0.00,,,0.00,Wunderground v.1.15,2013-04-29 23:35:00,
2013-04-29 18:45:00,83.8,54.7,29.49,South,169,7.0,8.0,37,0.00,,,0.00,Wunderground v.1.15,2013-04-29 23:45:00,
2013-04-29 18:50:00,83.8,54.7,29.49,SSE,165,7.0,10.0,37,0.00,,,0.00,Wunderground v.1.15,2013-04-29 23:50:00,
2013-04-29 19:00:00,83.4,53.6,29.48,SSE,157,8.0,9.0,36,0.00,,,0.00,Wunderground v.1.15,2013-04-30 00:00:00,
2013-04-29 19:05:00,83.1,52.6,29.48,South,184,6.0,9.0,35,0.00,,,0.00,Wunderground v.1.15,2013-04-30 00:05:00,
2013-04-29 19:15:00,82.7,52.3,29.48,SSE,163,5.0,6.0,35,0.00,,,0.00,Wunderground v.1.15,2013-04-30 00:15:00,
2013-04-29 19:25:00,82.4,53.5,29.48,SSE,161,2.0,4.0,37,0.00,,,0.00,Wunderground v.1.15,2013-04-30 00:25:00,
2013-04-29 19:30:00,82.1,53.2,29.48,SSE,161,2.0,2.0,37,0.00,,,0.00,Wunderground v.1.15,2013-04-30 00:30:00,
2013-04-29 19:35:00,81.8,53.0,29.48,SSE,161,2.0,2.0,37,0.00,,,0.00,Wunderground v.1.15,2013-04-30 00:35:00,
2013-04-29 19:45:00,81.3,53.3,29.48,SSE,161,2.0,2.0,38,0.00,,,0.00,Wunderground v.1.15,2013-04-30 00:45:00,
2013-04-29 19:50:00,81.0,53.7,29.48,SSE,161,1.0,1.0,39,0.00,,,0.00,Wunderground v.1.15,2013-04-30 00:50:00,
2013-04-29 20:00:00,80.4,53.9,29.48,SSE,161,1.0,1.0,40,0.00,,,0.00,Wunderground v.1.15,2013-04-30 01:00:00,
2013-04-29 20:05:00,80.0,54.2,29.47,SSE,161,1.0,1.0,41,0.00,,,0.00,Wunderground v.1.15,2013-04-30 01:05:00,
2013-04-29 20:15:00,79.4,54.3,29.48,SSE,161,0.0,1.0,42,0.00,,,0.00,Wunderground v.1.15,2013-04-30 01:15:00,
2013-04-29 20:20:00,79.0,53.3,29.47,SSE,161,0.0,0.0,41,0.00,,,0.00,Wunderground v.1.15,2013-04-30 01:20:00,
2013-04-29 20:30:00,78.3,53.3,29.47,SSE,161,0.0,0.0,42,0.00,,,0.00,Wunderground v.1.15,2013-04-30 01:30:00,
2013-04-29 20:35:00,77.9,53.6,29.48,SSE,161,0.0,0.0,43,0.00,,,0.00,Wunderground v.1.15,2013-04-30 01:35:00,
2013-04-29 20:45:00,77.2,53.6,29.48,SSE,161,0.0,0.0,44,0.00,,,0.00,Wunderground v.1.15,2013-04-30 01:45:00,
2013-04-29 20:50:00,76.9,53.3,29.48,SSE,161,0.0,0.0,44,0.00,,,0.00,Wunderground v.1.15,2013-04-30 01:50:00,
2013-04-29 21:00:00,76.3,53.4,29.48,SSE,161,0.0,0.0,45,0.00,,,0.00,Wunderground v.1.15,2013-04-30 02:00:00,
2013-04-29 21:05:00,76.0,53.7,29.48,SSE,161,0.0,0.0,46,0.00,,,0.00,Wunderground v.1.15,2013-04-30 02:05:00,
2013-04-29 21:15:00,75.5,53.9,29.49,SSE,161,1.0,2.0,47,0.00,,,0.00,Wunderground v.1.15,2013-04-30 02:15:00,
2013-04-29 21:25:00,75.1,54.1,29.49,South,174,3.0,3.0,48,0.00,,,0.00,Wunderground v.1.15,2013-04-30 02:25:00,
2013-04-29 21:30:00,74.9,54.4,29.49,South,180,3.0,4.0,49,0.00,,,0.00,Wunderground v.1.15,2013-04-30 02:30:00,
2013-04-29 21:40:00,74.5,55.2,29.49,SSW,201,4.0,7.0,51,0.00,,,0.00,Wunderground v.1.15,2013-04-30 02:40:00,
2013-04-29 21:45:00,74.3,55.5,29.49,SSW,206,4.0,7.0,52,0.00,,,0.00,Wunderground v.1.15,2013-04-30 02:45:00,
2013-04-29 21:55:00,74.0,55.8,29.48,SW,221,4.0,4.0,53,0.00,,,0.00,Wunderground v.1.15,2013-04-30 02:55:00,
2013-04-29 22:00:00,73.8,56.1,29.48,SW,225,4.0,4.0,54,0.00,,,0.00,Wunderground v.1.15,2013-04-30 03:00:00,
2013-04-29 22:05:00,73.7,56.0,29.48,SW,225,4.0,4.0,54,0.00,,,0.00,Wunderground v.1.15,2013-04-30 03:05:00,
2013-04-29 22:15:00,73.5,55.8,29.48,SW,225,3.0,3.0,54,0.00,,,0.00,Wunderground v.1.15,2013-04-30 03:15:00,
2013-04-29 22:25:00,73.1,56.0,29.48,SW,223,3.0,4.0,55,0.00,,,0.00,Wunderground v.1.15,2013-04-30 03:25:00,
2013-04-29 22:35:00,72.9,55.8,29.48,SSW,194,3.0,3.0,55,0.00,,,0.00,Wunderground v.1.15,2013-04-30 03:35:00,
2013-04-29 22:40:00,72.7,55.6,29.48,SSW,198,3.0,3.0,55,0.00,,,0.00,Wunderground v.1.15,2013-04-30 03:40:00,
2013-04-29 22:50:00,72.2,56.1,29.48,SE,139,5.0,6.0,57,0.00,,,0.00,Wunderground v.1.15,2013-04-30 03:50:00,
2013-04-29 22:55:00,71.8,56.2,29.48,SSW,197,6.0,6.0,58,0.00,,,0.00,Wunderground v.1.15,2013-04-30 03:55:00,
2013-04-29 23:05:00,71.5,56.4,29.47,SSE,160,6.0,6.0,59,0.00,,,0.00,Wunderground v.1.15,2013-04-30 04:05:00,
2013-04-29 23:10:00,71.3,56.2,29.47,South,181,5.0,5.0,59,0.00,,,0.00,Wunderground v.1.15,2013-04-30 04:10:00,
2013-04-29 23:20:00,71.1,56.0,29.47,South,169,5.0,8.0,59,0.00,,,0.00,Wunderground v.1.15,2013-04-30 04:20:00,
2013-04-29 23:25:00,71.0,56.4,29.47,South,190,6.0,8.0,60,0.00,,,0.00,Wunderground v.1.15,2013-04-30 04:25:00,
2013-04-29 23:35:00,70.9,56.3,29.47,South,189,5.0,9.0,60,0.00,,,0.00,Wunderground v.1.15,2013-04-30 04:35:00,
2013-04-29 23:40:00,70.9,56.3,29.47,South,180,6.0,10.0,60,0.00,,,0.00,Wunderground v.1.15,2013-04-30 04:40:00,
2013-04-29 23:50:00,70.9,56.3,29.46,SW,218,7.0,7.0,60,0.00,,,0.00,Wunderground v.1.15,2013-04-30 04:50:00,
2013-04-29 23:55:00,70.9,56.8,29.46,SSW,197,6.0,7.0,61,0.00,,,0.00,Wunderground v.1.15,2013-04-30 04:55:00,